User: anonymous   Login
Location: Unspecified
(0.0000°N, 0.0000°E)
Time: 20:44:15
(UTC+00:00)
Language:

TERCEL - Orbit

View from above orbital plane
View from above orbital plane
View from above satellite
View from above satellite

Ground track
Ground track

The orbit data is extracted from the following two-line orbital elements,

1 20547U 90028B   21136.70207795  .00000327  00000-0  12847-4 0  9995
2 20547  94.0990 193.4601 0080521 319.2464  40.2774 15.24988388717498
Epoch (UTC): 16 May 2021 16:50:59
Eccentricity: 0.0080521
inclination: 94.0990°
perigee height: 435 km
apogee height: 546 km
right ascension of ascending node: 193.4601°
argument of perigee: 319.2464°
revolutions per day: 15.24988388
mean anomaly at epoch: 40.2774°
orbit number at epoch: 71749

The dashed part of the orbit path shows where the satellite is in the earth's shadow,  

DLR